PRIVATE WETTERSTATION BILLIGHEIM-ALLFELD                       ZURCK
Wetterdaten: Montag, 09.05.2022
Datum Zeit Temp. A. Temp. A. min Temp. A. max Feuchte A. Luftdruck Regen Wind Richtung Richtung Sonnenschein ET Solar Taupunkt Windchill Windben Empfang
09.05.2022 00:00 12,6 C 12,6 C 12,7 C 83 % 1022,8 hPa 0,0 l/m 0,0 km/h (0 Bft) N 0 0 min 0,025 mm 0 W/m 9,8 C 12,6 C 0,0 km/h (0 Bft) 97 %
09.05.2022 00:10 12,7 C 12,6 C 12,7 C 84 % 1022,8 hPa 0,0 l/m 0,0 km/h (0 Bft) N 0 0 min 0,000 mm 0 W/m 10,1 C 12,7 C 0,0 km/h (0 Bft) 97 %
09.05.2022 00:20 12,6 C 12,6 C 12,7 C 83 % 1022,9 hPa 0,0 l/m 0,0 km/h (0 Bft) N 0 0 min 0,000 mm 0 W/m 9,8 C 12,6 C 0,0 km/h (0 Bft) 97 %
09.05.2022 00:30 12,5 C 12,5 C 12,6 C 84 % 1022,9 hPa 0,0 l/m 0,0 km/h (0 Bft) N 0 0 min 0,000 mm 0 W/m 9,9 C 12,5 C 0,0 km/h (0 Bft) 98 %
09.05.2022 00:40 12,4 C 12,4 C 12,5 C 84 % 1023,0 hPa 0,0 l/m 0,0 km/h (0 Bft) N 0 0 min 0,000 mm 0 W/m 9,8 C 12,4 C 0,0 km/h (0 Bft) 97 %
09.05.2022 00:50 12,3 C 12,3 C 12,3 C 85 % 1023,1 hPa 0,0 l/m 0,0 km/h (0 Bft) N 0 0 min 0,000 mm 0 W/m 9,9 C 12,3 C 0,0 km/h (0 Bft) 97 %
09.05.2022 01:00 12,2 C 12,2 C 12,3 C 85 % 1023,0 hPa 0,0 l/m 0,0 km/h (0 Bft) N 0 0 min 0,000 mm 0 W/m 9,8 C 12,2 C 0,0 km/h (0 Bft) 97 %
09.05.2022 01:10 12,3 C 12,2 C 12,3 C 85 % 1023,0 hPa 0,0 l/m 0,0 km/h (0 Bft) N 0 0 min 0,000 mm 0 W/m 9,9 C 12,3 C 0,0 km/h (0 Bft) 98 %
09.05.2022 01:20 12,4 C 12,3 C 12,4 C 85 % 1023,0 hPa 0,0 l/m 0,0 km/h (0 Bft) N 0 0 min 0,000 mm 0 W/m 9,9 C 12,4 C 0,0 km/h (0 Bft) 98 %
09.05.2022 01:30 12,3 C 12,3 C 12,4 C 85 % 1023,1 hPa 0,0 l/m 0,0 km/h (0 Bft) N 0 0 min 0,000 mm 0 W/m 9,9 C 12,3 C 0,0 km/h (0 Bft) 97 %
09.05.2022 01:40 12,4 C 12,3 C 12,4 C 85 % 1023,1 hPa 0,0 l/m 0,0 km/h (0 Bft) N-NO 22 0 min 0,000 mm 0 W/m 9,9 C 12,4 C 3,2 km/h (1 Bft) 98 %
09.05.2022 01:50 12,5 C 12,4 C 12,5 C 85 % 1023,1 hPa 0,0 l/m 0,0 km/h (0 Bft) N 0 0 min 0,000 mm 0 W/m 10,0 C 12,5 C 0,0 km/h (0 Bft) 96 %
09.05.2022 02:00 12,5 C 12,5 C 12,6 C 84 % 1023,1 hPa 0,0 l/m 0,0 km/h (0 Bft) N-NO 22 0 min 0,000 mm 0 W/m 9,9 C 12,5 C 1,6 km/h (1 Bft) 97 %
09.05.2022 02:10 12,4 C 12,4 C 12,5 C 85 % 1023,1 hPa 0,0 l/m 0,0 km/h (0 Bft) N-NO 22 0 min 0,000 mm 0 W/m 9,9 C 12,4 C 3,2 km/h (1 Bft) 97 %
09.05.2022 02:20 12,3 C 12,3 C 12,4 C 85 % 1023,1 hPa 0,0 l/m 0,0 km/h (0 Bft) N 0 0 min 0,000 mm 0 W/m 9,9 C 12,3 C 0,0 km/h (0 Bft) 97 %
09.05.2022 02:30 12,2 C 12,2 C 12,4 C 85 % 1023,1 hPa 0,0 l/m 0,0 km/h (0 Bft) N 0 0 min 0,000 mm 0 W/m 9,8 C 12,2 C 0,0 km/h (0 Bft) 98 %
09.05.2022 02:40 12,0 C 12,0 C 12,2 C 85 % 1023,1 hPa 0,0 l/m 0,0 km/h (0 Bft) N 0 0 min 0,000 mm 0 W/m 9,6 C 12,0 C 0,0 km/h (0 Bft) 97 %
09.05.2022 02:50 11,9 C 11,9 C 12,0 C 86 % 1023,1 hPa 0,0 l/m 0,0 km/h (0 Bft) N 0 0 min 0,000 mm 0 W/m 9,6 C 11,9 C 0,0 km/h (0 Bft) 98 %
09.05.2022 03:00 11,7 C 11,7 C 11,9 C 86 % 1023,0 hPa 0,0 l/m 0,0 km/h (0 Bft) N 0 0 min 0,000 mm 0 W/m 9,4 C 11,7 C 0,0 km/h (0 Bft) 97 %
09.05.2022 03:10 11,5 C 11,5 C 11,7 C 86 % 1023,1 hPa 0,0 l/m 0,0 km/h (0 Bft) N 0 0 min 0,000 mm 0 W/m 9,2 C 11,5 C 0,0 km/h (0 Bft) 98 %
09.05.2022 03:20 11,3 C 11,3 C 11,5 C 86 % 1023,1 hPa 0,0 l/m 0,0 km/h (0 Bft) N 0 0 min 0,000 mm 0 W/m 9,0 C 11,3 C 0,0 km/h (0 Bft) 98 %
09.05.2022 03:30 11,0 C 11,0 C 11,2 C 87 % 1023,0 hPa 0,0 l/m 0,0 km/h (0 Bft) N 0 0 min 0,000 mm 0 W/m 8,9 C 11,0 C 0,0 km/h (0 Bft) 97 %
09.05.2022 03:40 10,8 C 10,8 C 11,0 C 88 % 1023,0 hPa 0,0 l/m 0,0 km/h (0 Bft) N 0 0 min 0,000 mm 0 W/m 8,9 C 10,8 C 0,0 km/h (0 Bft) 97 %
09.05.2022 03:50 10,6 C 10,6 C 10,7 C 88 % 1022,9 hPa 0,0 l/m 0,0 km/h (0 Bft) N 0 0 min 0,000 mm 0 W/m 8,7 C 10,6 C 0,0 km/h (0 Bft) 97 %
09.05.2022 04:00 10,4 C 10,4 C 10,6 C 89 % 1022,9 hPa 0,0 l/m 0,0 km/h (0 Bft) N 0 0 min 0,000 mm 0 W/m 8,7 C 10,4 C 0,0 km/h (0 Bft) 97 %
09.05.2022 04:10 10,4 C 10,3 C 10,4 C 89 % 1023,0 hPa 0,0 l/m 0,0 km/h (0 Bft) N 0 0 min 0,000 mm 0 W/m 8,7 C 10,4 C 0,0 km/h (0 Bft) 98 %
09.05.2022 04:20 10,3 C 10,3 C 10,4 C 90 % 1023,1 hPa 0,0 l/m 0,0 km/h (0 Bft) N 0 0 min 0,000 mm 0 W/m 8,7 C 10,3 C 0,0 km/h (0 Bft) 98 %
09.05.2022 04:30 10,3 C 10,3 C 10,3 C 90 % 1023,1 hPa 0,0 l/m 0,0 km/h (0 Bft) N 0 0 min 0,000 mm 0 W/m 8,7 C 10,3 C 0,0 km/h (0 Bft) 98 %
09.05.2022 04:40 10,3 C 10,3 C 10,3 C 90 % 1023,1 hPa 0,0 l/m 0,0 km/h (0 Bft) N 0 0 min 0,000 mm 0 W/m 8,7 C 10,3 C 0,0 km/h (0 Bft) 98 %
09.05.2022 04:50 10,3 C 10,3 C 10,4 C 90 % 1023,1 hPa 0,0 l/m 0,0 km/h (0 Bft) N 0 0 min 0,000 mm 0 W/m 8,7 C 10,3 C 0,0 km/h (0 Bft) 87 %
09.05.2022 05:00 10,4 C 10,3 C 10,4 C 90 % 1023,1 hPa 0,0 l/m 0,0 km/h (0 Bft) N 0 0 min 0,000 mm 0 W/m 8,8 C 10,4 C 0,0 km/h (0 Bft) 98 %
09.05.2022 05:10 10,4 C 10,3 C 10,4 C 90 % 1023,1 hPa 0,0 l/m 0,0 km/h (0 Bft) N 0 0 min 0,000 mm 0 W/m 8,8 C 10,4 C 0,0 km/h (0 Bft) 99 %
09.05.2022 05:20 10,3 C 10,3 C 10,4 C 90 % 1023,1 hPa 0,0 l/m 0,0 km/h (0 Bft) N 0 0 min 0,000 mm 0 W/m 8,7 C 10,3 C 0,0 km/h (0 Bft) 99 %
09.05.2022 05:30 10,3 C 10,3 C 10,3 C 90 % 1023,1 hPa 0,0 l/m 0,0 km/h (0 Bft) N 0 0 min 0,000 mm 0 W/m 8,7 C 10,3 C 0,0 km/h (0 Bft) 98 %
09.05.2022 05:40 10,2 C 10,2 C 10,3 C 90 % 1023,1 hPa 0,0 l/m 0,0 km/h (0 Bft) N 0 0 min 0,000 mm 0 W/m 8,6 C 10,2 C 0,0 km/h (0 Bft) 98 %
09.05.2022 05:50 10,1 C 10,1 C 10,2 C 90 % 1023,1 hPa 0,0 l/m 0,0 km/h (0 Bft) N 0 0 min 0,000 mm 0 W/m 8,5 C 10,1 C 0,0 km/h (0 Bft) 98 %
09.05.2022 06:00 10,0 C 10,0 C 10,1 C 90 % 1023,0 hPa 0,0 l/m 0,0 km/h (0 Bft) N 0 0 min 0,000 mm 7 W/m 8,4 C 10,0 C 0,0 km/h (0 Bft) 98 %
09.05.2022 06:10 9,9 C 9,9 C 10,0 C 91 % 1023,1 hPa 0,0 l/m 0,0 km/h (0 Bft) N 0 0 min 0,000 mm 11 W/m 8,5 C 9,9 C 0,0 km/h (0 Bft) 100 %
09.05.2022 06:20 9,9 C 9,9 C 9,9 C 91 % 1023,2 hPa 0,0 l/m 0,0 km/h (0 Bft) N 0 0 min 0,000 mm 16 W/m 8,5 C 9,9 C 0,0 km/h (0 Bft) 99 %
09.05.2022 06:30 9,8 C 9,8 C 9,9 C 90 % 1023,3 hPa 0,0 l/m 0,0 km/h (0 Bft) N 0 0 min 0,000 mm 21 W/m 8,2 C 9,8 C 0,0 km/h (0 Bft) 99 %
09.05.2022 06:40 9,7 C 9,7 C 9,8 C 91 % 1023,3 hPa 0,0 l/m 0,0 km/h (0 Bft) N 0 0 min 0,000 mm 25 W/m 8,3 C 9,7 C 0,0 km/h (0 Bft) 100 %
09.05.2022 06:50 9,7 C 9,7 C 9,7 C 91 % 1023,4 hPa 0,0 l/m 0,0 km/h (0 Bft) N 0 0 min 0,000 mm 28 W/m 8,3 C 9,7 C 0,0 km/h (0 Bft) 100 %
09.05.2022 07:00 9,8 C 9,7 C 9,8 C 91 % 1023,4 hPa 0,0 l/m 0,0 km/h (0 Bft) N 0 0 min 0,000 mm 32 W/m 8,4 C 9,8 C 0,0 km/h (0 Bft) 100 %
09.05.2022 07:10 9,8 C 9,7 C 9,8 C 91 % 1023,3 hPa 0,0 l/m 0,0 km/h (0 Bft) N 0 0 min 0,000 mm 35 W/m 8,4 C 9,8 C 0,0 km/h (0 Bft) 100 %
09.05.2022 07:20 10,0 C 9,8 C 10,0 C 91 % 1023,5 hPa 0,0 l/m 0,0 km/h (0 Bft) N 0 0 min 0,000 mm 39 W/m 8,6 C 10,0 C 0,0 km/h (0 Bft) 100 %
09.05.2022 07:30 10,2 C 10,0 C 10,2 C 91 % 1023,5 hPa 0,0 l/m 0,0 km/h (0 Bft) N 0 0 min 0,000 mm 42 W/m 8,8 C 10,2 C 0,0 km/h (0 Bft) 100 %
09.05.2022 07:40 10,4 C 10,2 C 10,4 C 91 % 1023,5 hPa 0,0 l/m 0,0 km/h (0 Bft) N 0 0 min 0,000 mm 46 W/m 9,0 C 10,4 C 0,0 km/h (0 Bft) 100 %
09.05.2022 07:50 10,6 C 10,4 C 10,6 C 90 % 1023,7 hPa 0,0 l/m 0,0 km/h (0 Bft) N 0 0 min 0,000 mm 49 W/m 9,0 C 10,6 C 0,0 km/h (0 Bft) 100 %
09.05.2022 08:00 10,9 C 10,6 C 10,9 C 90 % 1023,7 hPa 0,0 l/m 0,0 km/h (0 Bft) N 0 0 min 0,025 mm 53 W/m 9,3 C 10,9 C 0,0 km/h (0 Bft) 100 %
09.05.2022 08:10 11,2 C 10,9 C 11,2 C 89 % 1023,9 hPa 0,0 l/m 0,0 km/h (0 Bft) N 0 0 min 0,000 mm 58 W/m 9,5 C 11,2 C 0,0 km/h (0 Bft) 99 %
09.05.2022 08:20 11,5 C 11,2 C 11,5 C 89 % 1023,8 hPa 0,0 l/m 0,0 km/h (0 Bft) N 360 0 min 0,000 mm 70 W/m 9,8 C 11,5 C 3,2 km/h (1 Bft) 100 %
09.05.2022 08:30 12,0 C 11,5 C 12,0 C 88 % 1023,8 hPa 0,0 l/m 0,0 km/h (0 Bft) N 360 10 min 0,000 mm 352 W/m 10,1 C 12,0 C 1,6 km/h (1 Bft) 100 %
09.05.2022 08:40 12,9 C 12,0 C 12,9 C 87 % 1023,8 hPa 0,0 l/m 0,0 km/h (0 Bft) N 0 10 min 0,000 mm 385 W/m 10,8 C 12,9 C 0,0 km/h (0 Bft) 100 %
09.05.2022 08:50 13,9 C 12,9 C 13,9 C 84 % 1023,9 hPa 0,0 l/m 0,0 km/h (0 Bft) N 360 10 min 0,000 mm 415 W/m 11,2 C 13,9 C 1,6 km/h (1 Bft) 100 %
09.05.2022 09:00 14,6 C 13,9 C 14,6 C 81 % 1023,9 hPa 0,0 l/m 0,0 km/h (0 Bft) N 360 10 min 0,127 mm 446 W/m 11,4 C 14,6 C 1,6 km/h (1 Bft) 100 %
09.05.2022 09:10 15,1 C 14,6 C 15,1 C 78 % 1023,9 hPa 0,0 l/m 0,0 km/h (0 Bft) N-NO 22 10 min 0,000 mm 478 W/m 11,3 C 15,1 C 1,6 km/h (1 Bft) 100 %
09.05.2022 09:20 15,5 C 15,1 C 15,5 C 78 % 1023,8 hPa 0,0 l/m 0,0 km/h (0 Bft) SO 135 10 min 0,000 mm 512 W/m 11,7 C 15,5 C 9,7 km/h (2 Bft) 100 %
09.05.2022 09:30 15,9 C 15,5 C 15,9 C 76 % 1023,9 hPa 0,0 l/m 0,0 km/h (0 Bft) O-SO 112 10 min 0,000 mm 540 W/m 11,7 C 15,9 C 1,6 km/h (1 Bft) 100 %
09.05.2022 09:40 16,3 C 15,9 C 16,3 C 74 % 1023,9 hPa 0,0 l/m 0,0 km/h (0 Bft) O 90 10 min 0,000 mm 564 W/m 11,7 C 16,3 C 1,6 km/h (1 Bft) 100 %
09.05.2022 09:50 16,6 C 16,3 C 16,6 C 74 % 1024,0 hPa 0,0 l/m 0,0 km/h (0 Bft) SO 135 10 min 0,000 mm 587 W/m 11,9 C 16,6 C 4,8 km/h (1 Bft) 100 %
09.05.2022 10:00 16,9 C 16,6 C 16,9 C 73 % 1024,0 hPa 0,0 l/m 1,6 km/h (1 Bft) O-NO 67 10 min 0,279 mm 613 W/m 12,0 C 16,9 C 14,5 km/h (3 Bft) 100 %
09.05.2022 10:10 17,2 C 16,9 C 17,2 C 72 % 1023,9 hPa 0,0 l/m 0,0 km/h (0 Bft) NO 45 10 min 0,000 mm 633 W/m 12,1 C 17,2 C 6,4 km/h (2 Bft) 100 %
09.05.2022 10:20 17,5 C 17,3 C 17,5 C 70 % 1023,9 hPa 0,0 l/m 0,0 km/h (0 Bft) N 360 10 min 0,000 mm 659 W/m 12,0 C 17,5 C 3,2 km/h (1 Bft) 100 %
09.05.2022 10:30 17,7 C 17,5 C 17,8 C 71 % 1024,0 hPa 0,0 l/m 0,0 km/h (0 Bft) N-NO 22 10 min 0,000 mm 680 W/m 12,4 C 17,7 C 3,2 km/h (1 Bft) 100 %
09.05.2022 10:40 18,2 C 17,8 C 18,2 C 69 % 1023,9 hPa 0,0 l/m 1,6 km/h (1 Bft) N-NW 337 10 min 0,000 mm 698 W/m 12,4 C 18,2 C 8,0 km/h (2 Bft) 100 %
09.05.2022 10:50 18,4 C 18,2 C 18,4 C 68 % 1024,0 hPa 0,0 l/m 1,6 km/h (1 Bft) O-NO 67 10 min 0,000 mm 719 W/m 12,4 C 18,4 C 8,0 km/h (2 Bft) 100 %
09.05.2022 11:00 18,6 C 18,4 C 18,6 C 68 % 1024,0 hPa 0,0 l/m 1,6 km/h (1 Bft) O-SO 112 10 min 0,381 mm 740 W/m 12,6 C 18,6 C 8,0 km/h (2 Bft) 100 %
09.05.2022 11:10 19,1 C 18,6 C 19,1 C 66 % 1023,9 hPa 0,0 l/m 0,0 km/h (0 Bft) O-SO 112 10 min 0,000 mm 759 W/m 12,6 C 19,1 C 8,0 km/h (2 Bft) 100 %
09.05.2022 11:20 19,6 C 19,1 C 19,6 C 67 % 1023,9 hPa 0,0 l/m 3,2 km/h (1 Bft) N-NW 337 10 min 0,000 mm 779 W/m 13,3 C 19,6 C 9,7 km/h (2 Bft) 99 %
09.05.2022 11:30 19,9 C 19,6 C 20,0 C 64 % 1023,8 hPa 0,0 l/m 0,0 km/h (0 Bft) N 360 10 min 0,000 mm 796 W/m 12,9 C 19,9 C 1,6 km/h (1 Bft) 100 %
09.05.2022 11:40 20,1 C 19,9 C 20,1 C 64 % 1023,9 hPa 0,0 l/m 0,0 km/h (0 Bft) N 360 10 min 0,000 mm 805 W/m 13,1 C 20,1 C 6,4 km/h (2 Bft) 99 %
09.05.2022 11:50 20,3 C 20,1 C 20,3 C 66 % 1023,8 hPa 0,0 l/m 1,6 km/h (1 Bft) N-NW 337 10 min 0,000 mm 821 W/m 13,7 C 20,3 C 8,0 km/h (2 Bft) 100 %
09.05.2022 12:00 20,7 C 20,3 C 20,7 C 61 % 1023,7 hPa 0,0 l/m 1,6 km/h (1 Bft) N-NO 22 10 min 0,457 mm 830 W/m 12,9 C 20,7 C 9,7 km/h (2 Bft) 100 %
09.05.2022 12:10 20,7 C 20,6 C 20,7 C 65 % 1023,8 hPa 0,0 l/m 1,6 km/h (1 Bft) N-NO 22 10 min 0,000 mm 838 W/m 13,9 C 20,7 C 8,0 km/h (2 Bft) 100 %
09.05.2022 12:20 20,9 C 20,7 C 20,9 C 62 % 1023,6 hPa 0,0 l/m 1,6 km/h (1 Bft) N-NW 337 10 min 0,000 mm 851 W/m 13,3 C 20,9 C 8,0 km/h (2 Bft) 100 %
09.05.2022 12:40 21,4 C 20,7 C 21,4 C 60 % 1023,5 hPa 0,0 l/m 0,8 km/h (0 Bft) SO 134 20 min 0,000 mm 861 W/m 13,3 C 21,4 C 11,3 km/h (2 Bft) 97 %
09.05.2022 12:50 21,6 C 21,4 C 21,6 C 58 % 1023,3 hPa 0,0 l/m 0,0 km/h (0 Bft) NW 306 10 min 0,000 mm 867 W/m 13,0 C 21,6 C 1,6 km/h (1 Bft) 98 %
09.05.2022 13:00 21,9 C 21,6 C 21,9 C 57 % 1023,3 hPa 0,0 l/m 0,0 km/h (0 Bft) S-SO 163 10 min 0,484 mm 877 W/m 13,0 C 21,9 C 1,6 km/h (1 Bft) 97 %
09.05.2022 13:10 21,9 C 21,9 C 21,9 C 56 % 1023,3 hPa 0,0 l/m 0,1 km/h (0 Bft) SO 132 10 min 0,000 mm 911 W/m 12,7 C 21,9 C 4,8 km/h (1 Bft) 98 %
09.05.2022 13:20 22,0 C 21,8 C 22,0 C 58 % 1023,2 hPa 0,0 l/m 0,2 km/h (0 Bft) NO 54 10 min 0,000 mm 900 W/m 13,3 C 22,0 C 6,4 km/h (2 Bft) 97 %
09.05.2022 13:30 22,2 C 22,0 C 22,2 C 56 % 1023,1 hPa 0,0 l/m 0,2 km/h (0 Bft) SO 134 10 min 0,000 mm 879 W/m 13,0 C 22,2 C 8,0 km/h (2 Bft) 98 %
09.05.2022 13:40 22,4 C 22,2 C 22,4 C 61 % 1023,0 hPa 0,0 l/m 1,6 km/h (1 Bft) N-NW 335 10 min 0,000 mm 882 W/m 14,5 C 22,4 C 11,3 km/h (2 Bft) 97 %
09.05.2022 13:50 22,6 C 22,4 C 22,6 C 54 % 1022,9 hPa 0,0 l/m 0,1 km/h (0 Bft) SO 124 10 min 0,000 mm 858 W/m 12,8 C 22,6 C 1,6 km/h (1 Bft) 97 %
09.05.2022 14:00 22,6 C 22,6 C 22,7 C 56 % 1022,8 hPa 0,0 l/m 0,5 km/h (0 Bft) N 360 10 min 0,483 mm 928 W/m 13,4 C 22,6 C 9,7 km/h (2 Bft) 98 %
09.05.2022 14:10 22,3 C 22,3 C 22,6 C 56 % 1022,7 hPa 0,0 l/m 0,2 km/h (0 Bft) N 5 10 min 0,000 mm 167 W/m 13,1 C 22,3 C 9,7 km/h (2 Bft) 97 %
09.05.2022 14:20 22,1 C 22,1 C 22,4 C 55 % 1022,7 hPa 0,0 l/m 0,5 km/h (0 Bft) O-SO 102 10 min 0,000 mm 229 W/m 12,6 C 22,1 C 8,0 km/h (2 Bft) 98 %
09.05.2022 14:30 22,3 C 22,1 C 22,4 C 57 % 1022,5 hPa 0,0 l/m 1,4 km/h (1 Bft) O-NO 77 10 min 0,000 mm 225 W/m 13,4 C 22,3 C 11,3 km/h (2 Bft) 97 %
09.05.2022 14:40 22,6 C 22,2 C 22,6 C 55 % 1022,4 hPa 0,0 l/m 1,4 km/h (1 Bft) SO 126 10 min 0,000 mm 861 W/m 13,1 C 22,6 C 19,3 km/h (3 Bft) 98 %
09.05.2022 14:50 23,1 C 22,6 C 23,1 C 55 % 1022,2 hPa 0,0 l/m 0,2 km/h (0 Bft) SO 140 10 min 0,000 mm 884 W/m 13,6 C 23,1 C 6,4 km/h (2 Bft) 97 %
09.05.2022 15:00 23,4 C 23,1 C 23,4 C 53 % 1022,1 hPa 0,0 l/m 0,5 km/h (0 Bft) N 5 10 min 0,406 mm 849 W/m 13,3 C 23,4 C 9,7 km/h (2 Bft) 97 %
09.05.2022 15:10 23,8 C 23,4 C 23,8 C 53 % 1022,0 hPa 0,0 l/m 0,4 km/h (0 Bft) NO 56 10 min 0,000 mm 816 W/m 13,6 C 23,8 C 8,0 km/h (2 Bft) 97 %
09.05.2022 15:20 23,8 C 23,8 C 23,9 C 54 % 1021,9 hPa 0,0 l/m 0,1 km/h (0 Bft) W-NW 299 10 min 0,000 mm 803 W/m 13,9 C 23,8 C 4,8 km/h (1 Bft) 97 %
09.05.2022 15:30 23,6 C 23,6 C 23,9 C 53 % 1021,8 hPa 0,0 l/m 0,2 km/h (0 Bft) N-NW 348 10 min 0,000 mm 844 W/m 13,4 C 23,6 C 8,0 km/h (2 Bft) 98 %
09.05.2022 15:40 23,4 C 23,4 C 23,6 C 52 % 1021,8 hPa 0,0 l/m 0,0 km/h (0 Bft) N 5 10 min 0,000 mm 777 W/m 13,0 C 23,4 C 0,0 km/h (0 Bft) 97 %
09.05.2022 15:50 23,7 C 23,4 C 23,7 C 52 % 1021,7 hPa 0,0 l/m 0,5 km/h (0 Bft) O 100 10 min 0,000 mm 793 W/m 13,2 C 23,7 C 4,8 km/h (1 Bft) 97 %
09.05.2022 16:00 23,5 C 23,5 C 23,8 C 52 % 1021,6 hPa 0,0 l/m 0,9 km/h (0 Bft) O-SO 113 10 min 0,406 mm 200 W/m 13,1 C 23,5 C 14,5 km/h (3 Bft) 97 %
09.05.2022 16:10 23,2 C 23,2 C 23,5 C 53 % 1021,6 hPa 0,0 l/m 0,2 km/h (0 Bft) SO 127 10 min 0,000 mm 276 W/m 13,1 C 23,2 C 4,8 km/h (1 Bft) 97 %
09.05.2022 16:20 23,0 C 23,0 C 23,2 C 54 % 1021,5 hPa 0,0 l/m 0,0 km/h (0 Bft) O-SO 113 10 min 0,000 mm 668 W/m 13,2 C 23,0 C 0,0 km/h (0 Bft) 98 %
09.05.2022 16:30 23,3 C 23,0 C 23,3 C 50 % 1021,4 hPa 0,0 l/m 0,0 km/h (0 Bft) O-SO 111 0 min 0,000 mm 148 W/m 12,3 C 23,3 C 0,0 km/h (0 Bft) 97 %
09.05.2022 16:40 23,5 C 23,2 C 23,5 C 50 % 1021,3 hPa 0,0 l/m 0,9 km/h (0 Bft) NW 319 10 min 0,000 mm 680 W/m 12,5 C 23,5 C 8,0 km/h (2 Bft) 98 %
09.05.2022 16:50 24,2 C 23,5 C 24,2 C 51 % 1021,0 hPa 0,0 l/m 1,9 km/h (1 Bft) NW 317 10 min 0,000 mm 656 W/m 13,4 C 24,2 C 9,7 km/h (2 Bft) 97 %
09.05.2022 17:00 23,6 C 23,6 C 24,3 C 49 % 1021,1 hPa 0,0 l/m 0,8 km/h (0 Bft) O 81 0 min 0,254 mm 121 W/m 12,2 C 23,6 C 9,7 km/h (2 Bft) 98 %
09.05.2022 17:10 22,8 C 22,8 C 23,6 C 52 % 1021,0 hPa 0,0 l/m 0,0 km/h (0 Bft) O 90 0 min 0,000 mm 84 W/m 12,4 C 22,8 C 1,6 km/h (1 Bft) 97 %
09.05.2022 17:20 22,7 C 22,6 C 22,8 C 50 % 1020,9 hPa 0,0 l/m 0,0 km/h (0 Bft) O 86 0 min 0,000 mm 98 W/m 11,7 C 22,7 C 0,0 km/h (0 Bft) 97 %
09.05.2022 17:30 23,3 C 22,7 C 23,3 C 53 % 1020,8 hPa 0,0 l/m 0,1 km/h (0 Bft) NO 50 10 min 0,000 mm 527 W/m 13,2 C 23,3 C 9,7 km/h (2 Bft) 89 %
09.05.2022 17:40 23,7 C 23,3 C 23,7 C 50 % 1020,8 hPa 0,0 l/m 0,1 km/h (0 Bft) SO 140 10 min 0,000 mm 501 W/m 12,6 C 23,7 C 3,2 km/h (1 Bft) 97 %
09.05.2022 17:50 23,4 C 23,4 C 23,7 C 50 % 1020,9 hPa 0,0 l/m 0,0 km/h (0 Bft) SO 130 0 min 0,000 mm 139 W/m 12,4 C 23,4 C 1,6 km/h (1 Bft) 97 %
09.05.2022 18:00 23,2 C 23,2 C 23,4 C 50 % 1020,8 hPa 0,0 l/m 0,0 km/h (0 Bft) SO 146 10 min 0,204 mm 399 W/m 12,2 C 23,2 C 0,0 km/h (0 Bft) 98 %
09.05.2022 18:10 23,6 C 23,2 C 23,6 C 48 % 1020,7 hPa 0,0 l/m 0,0 km/h (0 Bft) O-SO 114 10 min 0,000 mm 362 W/m 11,9 C 23,6 C 0,0 km/h (0 Bft) 97 %
09.05.2022 18:20 23,7 C 23,6 C 23,7 C 49 % 1020,7 hPa 0,0 l/m 0,0 km/h (0 Bft) SO 129 10 min 0,000 mm 338 W/m 12,3 C 23,7 C 1,6 km/h (1 Bft) 98 %
09.05.2022 18:30 23,7 C 23,6 C 23,7 C 49 % 1020,7 hPa 0,0 l/m 0,1 km/h (0 Bft) O-SO 105 10 min 0,000 mm 316 W/m 12,3 C 23,7 C 4,8 km/h (1 Bft) 97 %
09.05.2022 18:40 23,6 C 23,6 C 23,7 C 50 % 1020,8 hPa 0,0 l/m 0,0 km/h (0 Bft) O 97 10 min 0,000 mm 276 W/m 12,6 C 23,6 C 3,2 km/h (1 Bft) 98 %
09.05.2022 18:50 23,4 C 23,4 C 23,6 C 50 % 1020,8 hPa 0,0 l/m 0,0 km/h (0 Bft) O-SO 108 10 min 0,000 mm 237 W/m 12,4 C 23,4 C 1,6 km/h (1 Bft) 97 %
09.05.2022 19:00 23,2 C 23,2 C 23,4 C 54 % 1020,7 hPa 0,0 l/m 0,1 km/h (0 Bft) O-SO 111 10 min 0,203 mm 218 W/m 13,4 C 23,2 C 4,8 km/h (1 Bft) 97 %
09.05.2022 19:10 22,9 C 22,9 C 23,2 C 54 % 1020,7 hPa 0,0 l/m 0,0 km/h (0 Bft) O-SO 117 0 min 0,000 mm 65 W/m 13,1 C 22,9 C 1,6 km/h (1 Bft) 98 %
09.05.2022 19:20 22,6 C 22,6 C 22,9 C 53 % 1020,7 hPa 0,0 l/m 0,0 km/h (0 Bft) O-SO 117 0 min 0,000 mm 60 W/m 12,5 C 22,6 C 0,0 km/h (0 Bft) 98 %
09.05.2022 19:30 22,3 C 22,3 C 22,6 C 55 % 1020,8 hPa 0,0 l/m 0,0 km/h (0 Bft) O-SO 117 0 min 0,000 mm 54 W/m 12,8 C 22,3 C 0,0 km/h (0 Bft) 97 %
09.05.2022 19:40 21,9 C 21,9 C 22,3 C 58 % 1020,8 hPa 0,0 l/m 0,0 km/h (0 Bft) O-SO 117 0 min 0,000 mm 49 W/m 13,3 C 21,9 C 0,0 km/h (0 Bft) 97 %
09.05.2022 19:50 21,6 C 21,6 C 21,9 C 59 % 1020,9 hPa 0,0 l/m 0,0 km/h (0 Bft) O-SO 117 0 min 0,000 mm 42 W/m 13,2 C 21,6 C 0,0 km/h (0 Bft) 98 %
09.05.2022 20:00 21,1 C 21,1 C 21,6 C 60 % 1020,9 hPa 0,0 l/m 0,0 km/h (0 Bft) O-SO 117 0 min 0,051 mm 35 W/m 13,0 C 21,1 C 0,0 km/h (0 Bft) 97 %
09.05.2022 20:10 20,6 C 20,6 C 21,1 C 61 % 1020,9 hPa 0,0 l/m 0,0 km/h (0 Bft) O-SO 117 0 min 0,000 mm 30 W/m 12,8 C 20,6 C 0,0 km/h (0 Bft) 98 %
09.05.2022 20:20 20,1 C 20,1 C 20,6 C 60 % 1021,0 hPa 0,0 l/m 0,0 km/h (0 Bft) O-SO 117 0 min 0,000 mm 23 W/m 12,1 C 20,1 C 0,0 km/h (0 Bft) 97 %
09.05.2022 20:30 19,8 C 19,8 C 20,1 C 62 % 1021,1 hPa 0,0 l/m 0,0 km/h (0 Bft) O-SO 117 0 min 0,000 mm 14 W/m 12,3 C 19,8 C 0,0 km/h (0 Bft) 97 %
09.05.2022 20:40 19,3 C 19,3 C 19,8 C 62 % 1021,1 hPa 0,0 l/m 0,0 km/h (0 Bft) O-SO 117 0 min 0,000 mm 7 W/m 11,8 C 19,3 C 0,0 km/h (0 Bft) 97 %
09.05.2022 20:50 18,9 C 18,9 C 19,3 C 63 % 1021,2 hPa 0,0 l/m 0,0 km/h (0 Bft) O-SO 117 0 min 0,000 mm 0 W/m 11,7 C 18,9 C 0,0 km/h (0 Bft) 97 %
09.05.2022 21:00 18,6 C 18,5 C 18,9 C 62 % 1021,1 hPa 0,0 l/m 0,0 km/h (0 Bft) O-SO 117 0 min 0,025 mm 0 W/m 11,2 C 18,6 C 0,0 km/h (0 Bft) 98 %
09.05.2022 21:10 18,3 C 18,3 C 18,6 C 61 % 1021,3 hPa 0,0 l/m 0,0 km/h (0 Bft) N 0 0 min 0,000 mm 0 W/m 10,6 C 18,3 C 0,0 km/h (0 Bft) 100 %
09.05.2022 21:20 18,1 C 18,1 C 18,3 C 62 % 1021,3 hPa 0,0 l/m 0,0 km/h (0 Bft) N 0 0 min 0,000 mm 0 W/m 10,7 C 18,1 C 0,0 km/h (0 Bft) 100 %
09.05.2022 21:30 17,8 C 17,8 C 18,1 C 62 % 1021,4 hPa 0,0 l/m 0,0 km/h (0 Bft) N 0 0 min 0,000 mm 0 W/m 10,4 C 17,8 C 0,0 km/h (0 Bft) 100 %
09.05.2022 21:40 17,7 C 17,7 C 17,8 C 63 % 1021,4 hPa 0,0 l/m 0,0 km/h (0 Bft) N 0 0 min 0,000 mm 0 W/m 10,6 C 17,7 C 0,0 km/h (0 Bft) 100 %
09.05.2022 21:50 17,5 C 17,5 C 17,7 C 65 % 1021,4 hPa 0,0 l/m 0,0 km/h (0 Bft) N 0 0 min 0,000 mm 0 W/m 10,8 C 17,5 C 0,0 km/h (0 Bft) 100 %
09.05.2022 22:00 17,2 C 17,2 C 17,5 C 66 % 1021,3 hPa 0,0 l/m 0,0 km/h (0 Bft) N 0 0 min 0,025 mm 0 W/m 10,8 C 17,2 C 0,0 km/h (0 Bft) 100 %
09.05.2022 22:10 16,8 C 16,8 C 17,2 C 68 % 1021,4 hPa 0,0 l/m 0,0 km/h (0 Bft) N 0 0 min 0,000 mm 0 W/m 10,9 C 16,8 C 0,0 km/h (0 Bft) 100 %
09.05.2022 22:20 16,3 C 16,3 C 16,8 C 70 % 1021,4 hPa 0,0 l/m 0,0 km/h (0 Bft) N 0 0 min 0,000 mm 0 W/m 10,8 C 16,3 C 0,0 km/h (0 Bft) 100 %
09.05.2022 22:30 15,8 C 15,8 C 16,3 C 72 % 1021,5 hPa 0,0 l/m 0,0 km/h (0 Bft) O-SO 112 0 min 0,000 mm 0 W/m 10,8 C 15,8 C 1,6 km/h (1 Bft) 98 %
09.05.2022 22:40 15,4 C 15,4 C 15,8 C 74 % 1021,3 hPa 0,0 l/m 0,0 km/h (0 Bft) N 0 0 min 0,000 mm 0 W/m 10,8 C 15,4 C 0,0 km/h (0 Bft) 100 %
09.05.2022 22:50 15,1 C 15,1 C 15,4 C 76 % 1021,4 hPa 0,0 l/m 0,0 km/h (0 Bft) O-SO 112 0 min 0,000 mm 0 W/m 10,9 C 15,1 C 3,2 km/h (1 Bft) 100 %
09.05.2022 23:00 14,7 C 14,7 C 15,1 C 77 % 1021,4 hPa 0,0 l/m 0,0 km/h (0 Bft) O 90 0 min 0,025 mm 0 W/m 10,7 C 14,7 C 4,8 km/h (1 Bft) 100 %
09.05.2022 23:10 14,3 C 14,3 C 14,7 C 78 % 1021,4 hPa 0,0 l/m 3,2 km/h (1 Bft) O 90 0 min 0,000 mm 0 W/m 10,5 C 14,3 C 4,8 km/h (1 Bft) 100 %
09.05.2022 23:20 14,0 C 14,0 C 14,3 C 79 % 1021,3 hPa 0,0 l/m 0,0 km/h (0 Bft) O 90 0 min 0,000 mm 0 W/m 10,4 C 14,0 C 1,6 km/h (1 Bft) 100 %
09.05.2022 23:30 13,7 C 13,7 C 14,0 C 81 % 1021,3 hPa 0,0 l/m 0,0 km/h (0 Bft) O 90 0 min 0,000 mm 0 W/m 10,5 C 13,7 C 3,2 km/h (1 Bft) 100 %
09.05.2022 23:40 13,4 C 13,4 C 13,7 C 81 % 1021,3 hPa 0,0 l/m 0,0 km/h (0 Bft) O 90 0 min 0,000 mm 0 W/m 10,2 C 13,4 C 1,6 km/h (1 Bft) 99 %
09.05.2022 23:50 13,2 C 13,2 C 13,4 C 83 % 1021,3 hPa 0,0 l/m 0,0 km/h (0 Bft) N 0 0 min 0,000 mm 0 W/m 10,4 C 13,2 C 0,0 km/h (0 Bft) 100 %
_ Min-Zeit 06:40 06:40 06:50 18:10 18:10 - 00:00 - - - - - 06:30 06:40 00:00 04:50
Minimum _ 9,7 C 9,7 C 9,7 C 48 % 1020,7 hPa - 0,0 km/h (0 Bft) - - - - - 8,2 C 9,7 C 0,0 km/h (0 Bft) 87 %
_ Max-Zeit 17:00 15:20 17:00 06:10 09:50 00:00 11:20 - - 12:40 13:00 14:00 13:40 16:50 14:40 07:00
Maximum _ 24,3 C 23,8 C 24,3 C 91 % 1024,0 hPa 0,0 l/m 3,2 km/h
N-NW (1 Bft)
- - 20 min 0,484 mm 928 W/m 14,5 C 24,2 C 19,3 km/h
O-SO (3 Bft)
100 %
Durchschnitt _ 16,8 C 16,7 C 16,9 C 71 % 1022,5 hPa #0,0 l/m 0,2 km/h (0 Bft) N-NW - #9:50 h #3,860 mm 430 W/m 11,2 C 16,8 C 2,8 km/h (1 Bft) 98 %
PRIVATE WETTERSTATION BILLIGHEIM-ALLFELD - www.neckar-odenwald-wetter.de - Holger Sonntag